Weather Roundup
Issued by NWS Springfield, MO

Home | Current Version | Previous Version | Text Only | Print | Product List | Glossary On
Versions: 1 2 3 4 5 6 7 8 9 10 11 12 13 14 15 16 17 18 19 20 21 22 23 24 25 26 27 28 29 30 31 32 33 34 35 36 37 38 39 40 41 42 43 44 45 46 47 48 49 50
000
NZUS99 KSGF 272057
HRRSGF

HOURLY WEATHER
NATIONAL WEATHER SERVICE SPRINGFIELD MO
400 PM CDT TUE JUN 27 2017

......SGF CWA......

CITY           SKY/WX    TMP DP  RH WIND       PRES   REMARKS
SPRINGFIELD    MOSUNNY   81  65  58 S12       30.04F
JOPLIN         PTSUNNY   85  69  58 SE8       30.01F
WEST PLAINS    MOSUNNY   78  61  55 SE6       30.09F
BRANSON        PTSUNNY   82  63  51 SE8       30.07F

......SURROUNDING SGF CWA......

CITY           SKY/WX    TMP DP  RH WIND       PRES   REMARKS
CHANUTE        MOSUNNY   86  62  44 SE17G24   29.97F
PARSONS        MOSUNNY   86  65  49 S10       29.99F
COFFEYVILLE    MOSUNNY   87  64  46 S14       29.98F
EMPORIA        PTSUNNY   83  68  60 SE16G25   29.95F
HARRISON AR    MOSUNNY   81  60  48 S8        30.07S

......KANSAS AND MISSOURI......

CITY           SKY/WX    TMP DP  RH WIND       PRES   REMARKS
KANSAS CTY INT PTSUNNY   78  64  61 SE12      29.98F
SEDALIA        MOSUNNY   81  66  60 SE10      30.04F
ST JOSEPH      PTSUNNY   80  65  59 SE15G21   29.97F
ST LOUIS       MOSUNNY   81  50  33 S9G22     30.07F
WICHITA        MOSUNNY   91  69  48 S20G32    29.89F HX  96
TOPEKA         CLOUDY    79  68  69 S16G24    29.96F
OLATHE         CLOUDY    79  66  64 S14G21    29.99F

......TENNESSEE......

CITY           SKY/WX    TMP DP  RH WIND       PRES   REMARKS
MEMPHIS        NOT AVBL
NASHVILLE      PTSUNNY   83  53  35 NW8       30.09F

......ARKANSAS.......

CITY           SKY/WX    TMP DP  RH WIND       PRES   REMARKS
FAYETTEVILLE   CLOUDY    83  64  52 S9        30.04F
FT SMITH       MOSUNNY   88  67  49 MISG      30.00S HX  91
LITTLE ROCK    PTSUNNY   83  64  52 E9        30.04F

......OKLAHOMA.......

CITY           SKY/WX    TMP DP  RH WIND       PRES   REMARKS
TULSA          MOSUNNY   89  65  44 S13G20    29.96F HX  91
PONCA CITY     PTSUNNY   89  65  44 S20G26    29.92F HX  91
MCALESTER      MOSUNNY   89  68  49 VRB5      29.98F HX  93
OKLAHOMA CITY  PTSUNNY   92  63  38 S14       29.95F HX  93

......IOWA............

CITY           SKY/WX    TMP DP  RH WIND       PRES   REMARKS
DES MOINES     NOT AVBL
QUAD CITIES    SUNNY     76  49  38 S9        30.05F

......ILLINOIS........

CITY           SKY/WX    TMP DP  RH WIND       PRES   REMARKS
QUINCY         NOT AVBL
CHICAGO        MOSUNNY   76  43  30 CALM      30.06F




USA.gov is the U.S. government's official web portal to all federal, state and local government web resources and services.